カタログに戻る

THORAD DELTA 1 DEB

運用中SSO
NORAD 42595·DEBRIS·🇺🇸 United States

打ち上げ Nov 15, 1974 から Vandenberg Space Force Base

Loading…

次のパス (今後24時間)

TLE

最新Source: Space-Track

元期: Sep 13, 2026, 09:00 UTC

1 42595U 74089FL  26256.37535797  .00000024  00000-0  46135-3 0  9998
2 42595 101.6716 224.8475 0039841 143.7841 216.5936 12.46736739582953

AllMySatでTHORAD DELTA 1 DEBをリアルタイム追跡

Download on the App Store